Regional Weather Roundup
Issued by NWS

Home | Current Version | Previous Version | Graphics & Text | Print | Product List | Glossary Off
Versions: 1 2 3 4 5 6 7 8 9 10 11 12 13 14 15 16 17 18 19 20 21 22 23 24 25 26 27 28 29 30 31 32 33 34 35 36 37 38 39 40 41 42 43 44 45 46 47 48 49 50

000
ASUS43 KDTX 271910
RWRMI
MICHIGAN HOURLY REGIONAL WEATHER ROUNDUP
NATIONAL WEATHER SERVICE DETROIT/PONTIAC MI
200 PM EST MON FEB 27 2017

NOTE: "FAIR" INDICATES FEW OR NO CLOUDS BELOW 12,000 FEET WITH NO
SIGNIFICANT WEATHER AND/OR OBSTRUCTION TO VISIBILITY.

MIZ047>049-052>055-059>063-066>070-074>076-081>083-272000-
SOUTHEAST LOWER MICHIGAN

CITY           SKY/WX    TMP DP  RH WIND       PRES   REMARKS
ADRIAN         MOSUNNY   46  33  60 S14       30.19F
ALMA           SUNNY     45  20  35 S8        30.17F
ANN ARBOR      SUNNY     49  29  46 SW7       30.18F
BAD AXE        SUNNY     42  23  46 SW5       30.20S
CARO           SUNNY     47  23  39 W8        30.17F
DETROIT CITY   SUNNY     50  27  40 SW7       30.19F
DETROIT        MOSUNNY   50  27  40 S6        30.19F
FLINT          SUNNY     47  28  47 SW8       30.18F
GROSSE ILE     SUNNY     46  30  54 S10       30.20F
HILLSDALE      PTSUNNY   45  32  61 S9        30.16S
HOWELL         SUNNY     49  28  43 SW8       30.17F

CITY           SKY/WX    TMP DP  RH WIND       PRES   REMARKS
JACKSON        MOSUNNY   50  25  37 S10       30.15F
LAMBERTVILLE   CLOUDY    50  32  51 S9        30.20F
LANSING        MOSUNNY   50  28  42 SW10      30.17F
LAPEER         FAIR      47  23  37 CALM      30.18F
MASON          SUNNY     49  32  52 S6        30.16F
MONROE         PTSUNNY   48  33  55 SE8       30.18F
MT. CLEMENS    MOSUNNY   48  30  49 SE12      30.18F
PONTIAC        MOSUNNY   49  27  42 SW7       30.16F
PORT HOPE        N/A     35  29  78 E10       30.20F WCI  27
PORT HURON     SUNNY     46  28  49 SW5       30.19F
TRI CITIES     SUNNY     45  22  40 S8        30.18F
MIDLAND        FAIR      45  20  35 S6        30.17F
TROY           MOSUNNY   50  24  35 SW6       30.20F
SAGINAW HB     SUNNY     46  18  31 SW5       30.17F
$$
MIZ043>046-050>051-056>058-064>065-071>073-077>080-272000-
SOUTHWEST LOWER MICHIGAN

CITY           SKY/WX    TMP DP  RH WIND       PRES   REMARKS
BATTLE CREEK   MOSUNNY   49  29  46 SW10      30.16F
BENTON HARBOR  SUNNY     50  29  44 S8        30.15F
BIG RAPIDS     CLOUDY    43  21  42 S5        30.14S
COLDWATER      PTSUNNY   50  30  46 SW9       30.16F
FREMONT        CLOUDY    46  21  37 SW7       30.14F
HOLLAND        SUNNY     51  28  41 SW15      30.16F
GRAND RAPIDS   MOSUNNY   47  31  53 SW7       30.15F
IONIA          FAIR      46  29  52 S6        30.15F
KALAMAZOO      SUNNY     49  28  44 S9        30.17F
LUDINGTON      SUNNY     42  30  62 W8        30.13F
MARSHALL       SUNNY     49  28  43 S5        30.16S
MOUNT PLEASANT SUNNY     44  23  44 SE8       30.16F
MUSKEGON       CLOUDY    46  26  45 SW8       30.15F
SOUTH HAVEN    SUNNY     49  31  50 W5        30.15F
$$
MIZ016>042-272000-
NORTHERN LOWER MICHIGAN

CITY           SKY/WX    TMP DP  RH WIND       PRES   REMARKS
ALPENA         SUNNY     37  23  56 SE13      30.18F WCI  29
BEAVER ISLAND  MOSUNNY   34  22  62 SE7       30.14F WCI  27
BELLAIRE       SUNNY     40  20  46 S3        30.14F
CADILLAC       SUNNY     41  21  45 S9        30.11F
CHARLEVOIX     SUNNY     37  20  49 S3        30.17F
FRANKFORT      SUNNY     38  29  69 SW9G18    30.14R WCI  32
GAYLORD        SUNNY     38  20  48 S6        30.11F WCI  33
GRAYLING       SUNNY     41  22  46 S6        30.13F
HARBOR SPRINGS SUNNY     36  18  48 S3        30.15F
HOUGHTON LAKE  SUNNY     43  19  38 S8        30.13F
MANISTEE       SUNNY     43  21  41 S13       30.13F
OSCODA         SUNNY     40  25  55 S12       30.18F WCI  33
PELLSTON       MOSUNNY   36  16  44 S7        30.15F WCI  30
ROGERS CITY    MOSUNNY   35  20  54 E5        30.18F WCI  31
TRAVERSE CITY  PTSUNNY   43  20  39 VRB5      30.12F
$$
MIZ007>008-015-272000-
EASTERN UPPER MICHIGAN

CITY           SKY/WX    TMP DP  RH WIND       PRES   REMARKS
KINROSS        MOSUNNY   32  15  49 S8        30.15  WCI  25
MACKINAC ISLAN CLOUDY    32  16  52 SE3       30.15F
NEWBERRY       MOSUNNY   29  17  61 S9        30.11F WCI  21
S. S. MARIE    CLOUDY    31  12  45 SE8       30.15F WCI  23
MUNISING         N/A     34  18  52 S12G22    30.06F WCI  25
$$
MIZ004>006-011>014-085-272000-
CENTRAL UPPER MICHIGAN

CITY           SKY/WX    TMP DP  RH WIND       PRES   REMARKS
MANISTIQUE     CLOUDY    30  23  75 S12       30.12F WCI  21
ESCANABA       MOSUNNY   35  25  66 S13       30.09F WCI  26
MENOMINEE      SUNNY     38  22  52 SW17      30.09F WCI  28
SAWYER-GWINN   PTSUNNY   30  18  59 S17G23    30.03F WCI  18
$$
MIZ001>003-009>011-084-272000-
WESTERN UPPER MICHIGAN

CITY           SKY/WX    TMP DP  RH WIND       PRES   REMARKS
IRON MOUNTAIN  PTSUNNY   37  17  44 S14       30.01F WCI  28
HOUGHTON       CLOUDY    25  19  78 S7        29.98F WCI  17
COPPER HARBOR    N/A     28  20  71 SW9       30.02F WCI  19
IRONWOOD       CLOUDY    35  23  61 SW8       29.95  WCI  29
$$

ABBREVIATIONS USED IN REMARKS
   TC - TEMPERATURE IN CELSIUS
  WCI - WIND CHILL INDEX
   HX - HEAT INDEX
  VSB - VISIBILITY





USA.gov is the U.S. government's official web portal to all federal, state and local government web resources and services.